User: anonymous   Login
Location: Unspecified
(0.0000°N, 0.0000°E)
Time: 21:39:55
(UTC+00:00)
Language:

BEESAT 4 - Orbit

View from above orbital plane
View from above orbital plane
View from above satellite
View from above satellite

Ground track
Ground track

The orbit data is extracted from the following two-line orbital elements,

1 41619U 16040W   18048.80267830 +.00001573 +00000-0 +72427-4 0  9999
2 41619 097.4308 113.5339 0010165 291.6007 068.4146 15.21748267079937
Epoch (UTC): 17 February 2018 19:15:51
Eccentricity: 0.0010165
inclination: 97.4308°
perigee height: 493 km
apogee height: 507 km
right ascension of ascending node: 113.5339°
argument of perigee: 291.6007°
revolutions per day: 15.21748267
mean anomaly at epoch: 68.4146°
orbit number at epoch: 7993

The dashed part of the orbit path shows where the satellite is in the earth's shadow,  

DLR